Location: Emblem
(62.4273°N, 6.4710°E)
Time: 06:37:00
(UTC+02:00)

Transit 4A - Visible Passes

Search period start: 15 September 2024 00:00
Search period end: 25 September 2024 00:00
Orbit: 866 x 976 km, 66.8° (Epoch: 14 September)

Date Brightness Start Highest point End Pass type
(mag) Time Alt. Az. Time Alt. Az. Time Alt. Az.
15 Sep 10.1 03:24:45 10° SE 03:27:43 14° ESE 03:30:44 10° ENE visible
15 Sep 8.7 05:07:04 10° SSW 05:12:39 45° SE 05:18:24 10° ENE visible
16 Sep 9.8 03:32:32 11° SSE 03:36:18 19° ESE 03:40:20 10° ENE visible
16 Sep 8.4 05:16:02 11° SSW 05:21:30 55° SE 05:27:27 10° ENE visible
17 Sep 9.5 03:41:33 15° SSE 03:44:57 24° ESE 03:49:39 10° ENE visible
17 Sep 8.1 05:25:03 13° SW 05:30:24 67° SE 05:36:29 10° ENE visible
18 Sep 9.1 03:50:32 19° SSE 03:53:38 31° ESE 03:58:51 10° ENE visible
18 Sep 8.0 05:34:02 13° SW 05:39:21 79° SE 05:45:30 10° ENE visible
19 Sep 10.1 02:15:59 10° ESE 02:17:39 11° E 02:19:30 10° E visible
19 Sep 8.8 03:59:29 24° S 04:02:23 38° ESE 04:07:58 10° ENE visible
19 Sep 7.9 05:42:59 13° WSW 05:48:20 89° NNW 05:54:32 10° ENE visible
20 Sep 9.8 02:24:54 15° ESE 02:26:12 16° ESE 02:29:34 10° ENE visible
20 Sep 8.4 04:08:24 28° S 04:11:12 48° SE 04:17:02 10° ENE visible
20 Sep 7.9 05:51:53 13° WSW 05:57:22 79° NNW 06:03:35 10° ENE visible
21 Sep 9.5 02:33:47 19° ESE 02:34:47 20° ESE 02:39:04 10° ENE visible
21 Sep 8.1 04:17:17 31° SSW 04:20:03 59° SE 04:26:04 10° NE visible
21 Sep 8.0 06:00:46 12° WSW 06:06:26 71° NNW 06:12:38 10° ENE visible
22 Sep 9.1 02:42:39 25° SE 02:43:26 26° ESE 02:48:21 10° ENE visible
22 Sep 7.9 04:26:08 32° SSW 04:28:58 71° SE 04:35:06 10° ENE visible
22 Sep 8.1 06:09:37 10° W 06:15:32 65° NNW 06:21:43 10° ENE visible
23 Sep 8.8 02:51:29 32° SE 02:52:09 33° ESE 02:57:30 10° ENE visible
23 Sep 7.8 04:34:58 32° SW 04:37:56 83° SE 04:44:07 10° ENE visible
23 Sep 8.2 06:18:40 10° W 06:24:39 61° NNW 06:30:50 10° ENE visible
24 Sep 10.0 01:16:48 12° E 01:16:48 12° E 01:18:33 10° ENE visible
24 Sep 8.5 03:00:17 40° SE 03:00:54 41° SE 03:06:35 10° ENE visible
24 Sep 7.8 04:43:46 30° WSW 04:46:56 86° NNW 04:53:09 10° ENE visible
24 Sep 8.3 06:27:47 10° W 06:33:47 59° N 06:39:58 10° ENE visible
